• In Uzbekistan
  • List of Countries
  • For 7 days
  • Water Temperature
  • Weather Map
  • Weather Widgets
  • user-avatar
    Login

    Hourly Weather Puławy

    Today, 30 May, Saturday

    Time Temperature Precipitation Wind Pressure Humidity
    00:00 +8°C° 0.1 mm 4 mps 752 mmHg 92%
    01:00 +7°C° 0.1 mm 4 mps 751 mmHg 94%
    02:00 +7°C° 0.1 mm 4 mps 751 mmHg 94%
    03:00 +7°C° 0.1 mm 4 mps 751 mmHg 94%
    04:00 +6°C° 0.1 mm 4 mps 751 mmHg 94%
    05:00 +7°C° 0.1 mm 5 mps 751 mmHg 91%
    06:00 +8°C° 0.1 mm 6 mps 751 mmHg 87%
    07:00 +9°C° 0.1 mm 6 mps 751 mmHg 83%
    08:00 +9°C° 0.2 mm 6 mps 750 mmHg 84%
    09:00 +9°C° 0.2 mm 6 mps 750 mmHg 84%
    10:00 +9°C° 0.2 mm 7 mps 749 mmHg 85%
    11:00 +9°C° 0.4 mm 6 mps 749 mmHg 85%
    12:00 +10°C° 0.4 mm 5 mps 749 mmHg 86%
    13:00 +10°C° 0.4 mm 5 mps 749 mmHg 86%
    14:00 +10°C° 0.3 mm 5 mps 749 mmHg 87%
    15:00 +12°C° 0.3 mm 5 mps 748 mmHg 87%
    16:00 +12°C° 0.3 mm 5 mps 748 mmHg 87%
    17:00 +11°C° 0.8 mm 6 mps 748 mmHg 88%
    18:00 +11°C° 0.8 mm 6 mps 747 mmHg 90%
    19:00 +10°C° 0.8 mm 7 mps 747 mmHg 91%
    20:00 +10°C° 2.9 mm 8 mps 746 mmHg 92%
    21:00 +10°C° 2.9 mm 9 mps 746 mmHg 93%
    22:00 +9°C° 2.9 mm 10 mps 745 mmHg 94%
    23:00 +9°C° 4.1 mm 10 mps 745 mmHg 94%

    Tomorrow, 31 May, Sunday

    Time Temperature Precipitation Wind Pressure Humidity
    00:00 +9°C° 4.1 mm 10 mps 744 mmHg 95%
    01:00 +9°C° 4.1 mm 10 mps 743 mmHg 95%
    02:00 +10°C° 2.3 mm 9 mps 743 mmHg 94%
    03:00 +10°C° 2.3 mm 8 mps 743 mmHg 93%
    04:00 +10°C° 2.3 mm 8 mps 743 mmHg 93%
    05:00 +10°C° 0.8 mm 8 mps 743 mmHg 92%
    06:00 +10°C° 0.8 mm 8 mps 744 mmHg 92%
    07:00 +10°C° 0.8 mm 7 mps 744 mmHg 92%
    08:00 +10°C° 0.3 mm 7 mps 744 mmHg 92%
    09:00 +11°C° 0.3 mm 7 mps 745 mmHg 92%
    10:00 +11°C° 0.3 mm 7 mps 745 mmHg 92%
    11:00 +11°C° 0.1 mm 7 mps 746 mmHg 91%
    12:00 +11°C° 0.1 mm 7 mps 746 mmHg 91%
    13:00 +11°C° 0.1 mm 6 mps 746 mmHg 90%
    14:00 +11°C° 0.2 mm 6 mps 747 mmHg 90%
    15:00 +11°C° 0.2 mm 6 mps 747 mmHg 90%
    16:00 +11°C° 0.2 mm 6 mps 747 mmHg 90%
    17:00 +12°C° 0 mm 5 mps 748 mmHg 90%
    18:00 +12°C° 0 mm 5 mps 748 mmHg 89%
    19:00 +12°C° 0 mm 4 mps 748 mmHg 88%
    20:00 +12°C° 0 mm 4 mps 749 mmHg 89%
    21:00 +11°C° 0 mm 4 mps 749 mmHg 89%
    22:00 +11°C° 0 mm 4 mps 750 mmHg 90%
    23:00 +11°C° 0 mm 4 mps 750 mmHg 89%

    Day after tomorrow, 1 June, Monday

    Time Temperature Precipitation Wind Pressure Humidity
    00:00 +10°C° 0 mm 4 mps 750 mmHg 88%
    01:00 +9°C° 0 mm 5 mps 751 mmHg 87%
    02:00 +9°C° 0 mm 5 mps 751 mmHg 85%
    03:00 +10°C° 0 mm 4 mps 751 mmHg 82%
    04:00 +10°C° 0 mm 4 mps 751 mmHg 80%
    05:00 +9°C° 0 mm 5 mps 751 mmHg 78%
    06:00 +9°C° 0 mm 5 mps 752 mmHg 75%
    07:00 +10°C° 0 mm 5 mps 752 mmHg 73%
    08:00 +11°C° 0 mm 6 mps 752 mmHg 69%
    09:00 +13°C° 0 mm 6 mps 752 mmHg 65%
    10:00 +14°C° 0 mm 6 mps 752 mmHg 61%
    11:00 +14°C° 0 mm 6 mps 752 mmHg 61%
    12:00 +14°C° 0 mm 6 mps 752 mmHg 61%
    13:00 +15°C° 0 mm 6 mps 752 mmHg 61%
    14:00 +15°C° 0 mm 6 mps 752 mmHg 61%
    15:00 +14°C° 0 mm 6 mps 752 mmHg 61%
    16:00 +14°C° 0 mm 6 mps 752 mmHg 61%
    17:00 +13°C° 0 mm 5 mps 752 mmHg 66%
    18:00 +12°C° 0 mm 4 mps 752 mmHg 70%
    19:00 +11°C° 0 mm 4 mps 752 mmHg 74%
    20:00 +11°C° 0 mm 4 mps 751 mmHg 77%
    21:00 +10°C° 0 mm 4 mps 751 mmHg 80%
    22:00 +9°C° 0 mm 3 mps 751 mmHg 83%
    23:00 +9°C° 0.2 mm 3 mps 751 mmHg 87%

    2 June, Tuesday

    Time Temperature Precipitation Wind Pressure Humidity
    00:00 +9°C° 0.2 mm 3 mps 750 mmHg 90%
    01:00 +9°C° 0.2 mm 3 mps 750 mmHg 93%
    02:00 +8°C° 0.3 mm 4 mps 749 mmHg 93%
    03:00 +7°C° 0.3 mm 4 mps 749 mmHg 93%
    04:00 +6°C° 0.3 mm 5 mps 749 mmHg 93%
    05:00 +7°C° 0 mm 5 mps 749 mmHg 88%
    06:00 +8°C° 0 mm 5 mps 749 mmHg 83%
    07:00 +9°C° 0 mm 6 mps 749 mmHg 78%
    08:00 +10°C° 0 mm 6 mps 749 mmHg 72%
    09:00 +12°C° 0 mm 7 mps 749 mmHg 66%
    10:00 +14°C° 0 mm 7 mps 749 mmHg 61%
    11:00 +14°C° 0.1 mm 7 mps 749 mmHg 63%
    12:00 +14°C° 0.1 mm 7 mps 748 mmHg 65%
    13:00 +13°C° 0.1 mm 8 mps 748 mmHg 67%
    14:00 +12°C° 0.4 mm 7 mps 747 mmHg 74%
    15:00 +11°C° 0.4 mm 6 mps 747 mmHg 81%
    16:00 +10°C° 0.4 mm 5 mps 747 mmHg 89%
    17:00 +9°C° 0.2 mm 5 mps 747 mmHg 89%
    18:00 +9°C° 0.2 mm 6 mps 746 mmHg 90%
    19:00 +9°C° 0.2 mm 6 mps 746 mmHg 90%
    20:00 +9°C° 0.2 mm 5 mps 746 mmHg 90%
    21:00 +9°C° 0.2 mm 5 mps 746 mmHg 90%
    22:00 +10°C° 0.2 mm 4 mps 746 mmHg 90%
    23:00 +8°C° 0 mm 4 mps 745 mmHg 90%

    3 June, Wednesday

    Time Temperature Precipitation Wind Pressure Humidity
    00:00 +8°C° 0 mm 4 mps 745 mmHg 90%
    01:00 +8°C° 0 mm 5 mps 745 mmHg 90%
    02:00 +8°C° 0.2 mm 5 mps 744 mmHg 90%
    03:00 +8°C° 0.2 mm 5 mps 744 mmHg 91%
    04:00 +8°C° 0.2 mm 5 mps 744 mmHg 91%
    05:00 +10°C° 0.1 mm 4 mps 744 mmHg 89%
    06:00 +10°C° 0.1 mm 4 mps 744 mmHg 88%
    07:00 +11°C° 0.1 mm 4 mps 744 mmHg 86%
    08:00 +11°C° 0.2 mm 4 mps 744 mmHg 86%
    09:00 +11°C° 0.2 mm 4 mps 744 mmHg 85%
    10:00 +12°C° 0.2 mm 4 mps 744 mmHg 85%
    11:00 +12°C° 0.1 mm 3 mps 744 mmHg 86%
    12:00 +12°C° 0.1 mm 3 mps 744 mmHg 87%
    13:00 +12°C° 0.1 mm 3 mps 744 mmHg 87%
    14:00 +13°C° 0.1 mm 2 mps 744 mmHg 87%
    15:00 +13°C° 0.1 mm 1 mps 744 mmHg 88%
    16:00 +13°C° 0.1 mm 1 mps 744 mmHg 88%
    17:00 +13°C° 0.1 mm 1 mps 744 mmHg 89%
    18:00 +12°C° 0.1 mm 1 mps 744 mmHg 91%
    19:00 +12°C° 0.1 mm 1 mps 744 mmHg 93%
    20:00 +12°C° 0 mm 1 mps 744 mmHg 94%
    21:00 +11°C° 0 mm 1 mps 744 mmHg 95%
    22:00 +11°C° 0 mm 1 mps 745 mmHg 96%
    23:00 +11°C° 0.1 mm 1 mps 744 mmHg 96%

    4 June, Thursday

    Time Temperature Precipitation Wind Pressure Humidity
    00:00 +11°C° 0.1 mm 1 mps 744 mmHg 96%
    01:00 +10°C° 0.1 mm 1 mps 744 mmHg 97%
    02:00 +10°C° 0 mm 1 mps 744 mmHg 97%
    03:00 +10°C° 0 mm 1 mps 744 mmHg 96%
    04:00 +11°C° 0 mm 1 mps 744 mmHg 96%
    05:00 +11°C° 0 mm 1 mps 744 mmHg 94%
    06:00 +12°C° 0 mm 1 mps 744 mmHg 92%
    07:00 +12°C° 0 mm 1 mps 744 mmHg 90%
    08:00 +13°C° 0.1 mm 1 mps 744 mmHg 87%
    09:00 +14°C° 0.1 mm 1 mps 744 mmHg 83%
    10:00 +15°C° 0.1 mm 1 mps 744 mmHg 80%
    11:00 +16°C° 0.1 mm 1 mps 744 mmHg 74%
    12:00 +18°C° 0.1 mm 1 mps 743 mmHg 69%
    13:00 +20°C° 0.1 mm 1 mps 743 mmHg 64%
    14:00 +20°C° 0.1 mm 1 mps 743 mmHg 63%
    15:00 +20°C° 0.1 mm 1 mps 743 mmHg 62%
    16:00 +20°C° 0.1 mm 1 mps 743 mmHg 62%
    17:00 +19°C° 0 mm 1 mps 743 mmHg 67%
    18:00 +16°C° 0 mm 1 mps 743 mmHg 72%
    19:00 +14°C° 0 mm 0 mps 742 mmHg 77%
    20:00 +13°C° 0 mm 0 mps 743 mmHg 79%
    21:00 +12°C° 0 mm 0 mps 743 mmHg 82%
    22:00 +11°C° 0 mm 0 mps 743 mmHg 84%
    23:00 +12°C° 0 mm 1 mps 743 mmHg 86%
    Show more